Погода в Шумене

Болгария     43°15′58″N   26°56′04″E
темп.,
°C
ветер,
м/с
пор.,
м/с
влажн.,
%
обл.,
%
осадки,
мм/ч
давл.,
гПа
погр.,
м
18 апреля, вс
вс1800:00+6в2584100 0.0 1017253
03:00+6всв2383100 0.0 1016144
06:00+6в1280100 0.0 101674
09:00+8вюв367284 0.0 1016476
12:00+11юв5677100 0.0 1016822
15:00+12вюв3375100 0.1 1015854
18:00+11в3382100 0.0 1015430
21:00+8в2295100 0.0 101716
19 апреля, пн
пн1900:00+8в1196100 0.0 101810
03:00+8ссв1195100 0.2 101631
06:00+8всв1193100 0.1 101536
09:00+9всв248377 0.1 1015427
12:00+9в3586100 0.1 1013516
15:00+9сз2293100 0.9 1012201
18:00+7с3693100 0.9 1010349
21:00+8ссз2696100 2.9 1009408
20 апреля, вт
вт2000:00+7зсз4996100 2.3 1008527
03:00+7з71293100 5.1 1007573
06:00+7з51095100 0.5 1007578
09:00+7з71293100 1.4 1008702
12:00+9зсз61189100 0.2 1010875
15:00+12з7971100 0.4 10111309
18:00+12з69715 0.3 1012884
21:00+8зюз228345 0.3 101422
21 апреля, ср
ср2100:00+6юз128685 0.0 101510
03:00+6юз118517 0.0 101610
06:00+5зюз2283100 0.0 101610
09:00+9з257690 0.4 1018424
12:00+14з575750 0.0 10181620
15:00+15з684887 0.0 10172338
18:00+14зсз57606 0.1 10171369
21:00+9юз22740 0.1 101911
22 апреля, чт
чт2200:00+7юз11784 0.0 102011
03:00+6зюз11810 0.0 102010
06:00+6юз11813 0.0 102110
09:00+11ю11661 0.0 1021195
12:00+17ююв23525 0.0 10211222
15:00+18ююв4453100 0.6 10201243
18:00+16ю356542 0.4 1020348
21:00+11юв228672 1.1 102111